{"data":{"norad_id":68102,"intl_designator":"2026-044B","name":"STARLINK-37046","alt_names":[],"object_type":"PAYLOAD","status":"ACTIVE","operator":null,"country":"US","launch_date":"2026-03-08","launch_site_code":"AFWTR","launch_vehicle":null,"mission":null,"orbit_class":"UNKNOWN","rcs_meters":null,"size_class":null,"mass_kg":null,"dimensions":null,"purposes":["comms"],"wikipedia_slug":null,"has_3d_model":false,"image_url":null,"decayed_at":null,"tle_current":{"epoch":"2026-09-19T07:55:03.886176Z","epoch_age_seconds":156874,"freshness":"FRESH","line1":"1 68102U 26044B   26262.32990609  .00016747  00000+0  51986-3 0  9995","line2":"2 68102  97.2871 221.2239 0001220 106.2538 253.8839 15.33449045 31251","mean_motion":15.33449045,"eccentricity":0.000122,"inclination_deg":97.2871,"raan_deg":221.2239,"arg_perigee_deg":106.2538,"mean_anomaly_deg":253.8839,"bstar":0.00051986,"rev_number":3125,"period_min":93.905956946877,"perigee_km":464.69621191748,"apogee_km":466.3660669435,"semimajor_km":6843.6681394305,"source":"CELESTRAK","updated_at":"2026-09-20T09:00:43.784825Z"}}}